Location: Newark
(51.3318°N, 0.0053°E)
Time: 21:50:43
(UTC+00:00)

DIWATA 2B (PO-101) - Pass Details

Date: 10 July 2022
Orbit: 583 x 599 km, 98.0° (Epoch: 16 August)

Event Time Altitude Azimuth Distance (km) Brightness Sun altitude
Rises 23:51:26 0° 103° (ESE) 2,845 ? -16.5°
Reaches altitude 10° 23:55:32 10° 63° (ENE) 1,947 ? -16.5°
Maximum altitude 23:56:17 10° 53° (NE) 1,919 ? -16.5°
Drops below altitude 10° 23:57:02 10° 42° (NE) 1,948 ? -16.5°
Sets 00:01:08 0° 3° (N) 2,854 ? -16.5°
